Other Public Products
Issued by NWS Grand Forks, ND

Home | Current Version | Previous Version | Graphics & Text | Print | Product List | Glossary On
Versions: 1 2 3 4 5 6 7 8 9 10 11 12 13 14 15 16 17 18 19 20 21 22 23 24 25 26 27 28 29 30 31 32 33 34 35 36 37 38 39 40 41 42 43 44 45 46 47 48 49 50
000
FPUS83 KFGF 110531
OPUFGF
PRAIRIE TO PINES WEATHER ROUNDUP
NATIONAL WEATHER SERVICE EASTERN NORTH DAKOTA/GRAND FORKS ND
1100 PM CST SUN DEC 10 2017

 **SATELLITE DATA USED TO AUGMENT SKY COVER AT AUTOMATED STATIONS**
 *****  WEATHER ACROSS EASTERN NORTH DAKOTA  *****

CITY           SKY/WX    TMP DP  RH WIND       PRES   REMARKS
GRAND FORKS    MOCLDY    28  27  96 S12       29.76F WCI  18
GRND FORKS AFB MOCLDY    29  27  93 S7        29.75F WCI  22
GRND FORKS NWS   N/A     28 N/A N/A S14         N/A  WCI  17
BUXTON           N/A    N/A N/A N/A CALM        N/A
DEVILS LAKE    MOCLDY    37  29  72 W22       29.75F
FARGO          CLOUDY    30  27  88 S9        29.83F WCI  22
WAHPETON ARPT  MOCLDY    30  25  80 S8        29.84F WCI  23
$$

 *****  WEATHER ACROSS CENTRAL AND WESTERN NORTH DAKOTA  *****

CITY           SKY/WX    TMP DP  RH WIND       PRES   REMARKS
JAMESTOWN      MOCLDY    40  29  64 W16       29.81F
BISMARCK       CLOUDY    44  24  45 NW13      29.94R
MINOT          FAIR      43  25  49 W21G30    29.80F
MINOT AFB      FAIR      43  26  50 NW30G38   29.77F
GARRISON         N/A     39  20  46 W21G28    29.87F
WILLISTON      FAIR      42  26  53 NW25G36   29.97S
DICKINSON      FAIR      38  17  42 W18       29.98R
HETTINGER      FAIR      34  16  47 W16       30.03R WCI  24
$$

 *****  OTHER OBSERVATIONS NORTHEAST NORTH DAKOTA  *****

CITY           SKY/WX    TMP DP  RH WIND       PRES   REMARKS
WALHALLA       MIX PCPN  28  28 100 SE6       29.69F WCI  22
LANGDON        NOT AVBL
CAVALIER       MOCLDY    27  27 100 S7        29.70F WCI  19
GRAFTON        NOT AVBL
CANDO          CLOUDY    34  34 100 W13       29.74F WCI  25
FORT TOTTEN      N/A     37  29  72 W10       29.95S
ROLLA          MOCLDY    37  27  65 W21       29.70F
RUGBY          NOT AVBL
 ***** THE ABOVE OBSERVATIONS ARE NON NWS ARE NOT QUALITY
        CONTROLLED AND MAY MIS-REPORT RAIN FOR SNOW...
$$

 *****  OTHER OBSERVATIONS SOUTHEAST NORTH DAKOTA *****

CITY           SKY/WX    TMP DP  RH WIND       PRES   REMARKS
COOPERSTOWN    FAIR      36  30  80 W15       29.76F
VALLEY CITY    NOT AVBL
OAKES            N/A     36  32  87 SW9       29.85S
GWINNER          N/A     36  32  87 SW15      29.82F
SHEYENNE NWR     N/A     33  32  96 SW6       29.95S
BUFFALO          N/A     34  30  88 SW10        N/A
WYNDMERE       NOT AVBL
 ***** THE ABOVE OBSERVATIONS ARE NON NWS ARE NOT QUALITY
       CONTROLLED AND MAY MIS-REPORT RAIN FOR SNOW...
$$

  *****  WEATHER ACROSS NORTHERN MINNESOTA  *****

CITY           SKY/WX    TMP DP  RH WIND       PRES   REMARKS
FLAG ISLAND    LGT SNOW  18  16  93 SE15      29.75F WCI   3
WARROAD        LGT SNOW  19  16  86 S9        29.76F WCI   9
ROSEAU         LGT SNOW  21  18  86 S9        29.75F WCI  11
HALLOCK        CLOUDY    27  25  93 S15       29.73F WCI  15
THF RVR FALLS  LGT SNOW  23  21  92 S10       29.78F FOG     WCI  12
HALSTAD        NOT AVBL
FOSSTON        LGT SNOW  23  21  93 S14       29.79F WCI  11
BAUDETTE       LGT SNOW  19  17  92 SE9       29.77F VSB 1   WCI   8
WASKISH        LGT SNOW  19  18  93 SE5       29.80F WCI  13
CROOKSTON      CLOUDY    27  25  93 S14       29.78F WCI  15
$$
  *****  WEATHER ACROSS CENTRAL AND WEST MINNESOTA  *****

CITY           SKY/WX    TMP DP  RH WIND       PRES   REMARKS
BEMIDJI        SNOW      21  19  94 S3        29.80F VSB 1/2
PARK RAPIDS    LGT SNOW  22  19  89 S7        29.82F VSB 1   WCI  13
WADENA         LGT SNOW  23  21  93 S6        29.84F VSB 1   WCI  16
DETROIT LAKES  LGT SNOW  28  27  93 SW8       29.82F WCI  20
MOORHEAD       FAIR      28  27  93 CALM      29.83F
FERGUS FALLS   LGT SNOW  28  28 100 S9        29.88F WCI  20
ELBOW LAKE     LGT SNOW  28  26  94 S7        29.87F WCI  21
MORRIS MN      MOCLDY    32  25  74 SE8       29.86F WCI  25
STAPLES        LGT SNOW  23  19  86 S6        29.86S WCI  16
WHEATON        NOT AVBL
$$
  *****  WEATHER ELSEWHERE ACROSS MINNESOTA  *****

CITY           SKY/WX    TMP DP  RH WIND       PRES   REMARKS
DULUTH         MOCLDY    13  10  88 S3        29.90F
INTRNTL FALLS  CLOUDY    12   8  84 SE7       29.85F WCI   1
ELY            FAIR       3   1  92 CALM      29.89F
CLOQUET        FAIR      16  12  86 CALM      29.91F
BRAINERD       LGT SNOW  25  20  81 S6        29.87F WCI  18
HIBBING        MOCLDY     9   6  88 CALM      29.89F
ALEXANDRIA     LGT SNOW  27  26  96 S9        29.86F FOG     WCI  18
SAINT CLOUD    CLOUDY    24  21  88 SE7       29.91F WCI  16
MINNEAPOLIS    CLOUDY    25  22  88 S3        29.98F
$$

  *****  WEATHER ACROSS SOUTH DAKOTA  *****

CITY           SKY/WX    TMP DP  RH WIND       PRES   REMARKS
SIOUX FALLS    CLOUDY    36  29  75 SW5       29.96F
BROOKINGS      CLOUDY    35  28  75 S5        29.91
WATERTOWN      MOCLDY    33  27  78 SW6       29.88F
HURON          MOCLDY    35  27  72 W3        29.93F
SISSETON         N/A     39  29  67 W12       29.85F
ABERDEEN       MOCLDY    34  29  82 SW6       29.90F
MITCHELL       FAIR      39  27  62 S8        29.94F
PIERRE         FAIR      45  21  38 W15       29.98F
MOBRIDGE       FAIR      39  24  55 N9        29.93F
RAPID CITY     FAIR      51   9  18 NW16G25   30.11F
$$

  *****  SOME WEATHER IN NEARBY STATES *****

CITY           SKY/WX    TMP DP  RH WIND       PRES   REMARKS
GLASGOW MT     FAIR      42  21  43 NW25      30.16R
GREAT FALLS MT FAIR      36  13  38 S13       30.38R
CHEYENNE WY    FAIR      40   1  19 NW16G26   30.32S
SCOTTSBLUFF NE FAIR      32   9  38 NW8       30.26S WCI  25
OMAHA NE       FAIR      31  22  69 SE6       30.04F
DES MOINES IA  CLOUDY    35  25  66 S7        30.05F
DAVENPORT IA   FAIR      22  18  85 SW3       30.10F
CHICAGO IL     MOCLDY    26  18  71 NW3       30.07S
EAU CLAIRE WI  CLOUDY    20  17  88 CALM      29.99F
LA CROSSE WI   CLOUDY    28  20  71 S3        30.03F
$$

  *****  SOME NATIONAL WEATHER *****

CITY           SKY/WX    TMP DP  RH WIND       PRES   REMARKS
LA GUARDIA NY  CLOUDY    37  21  52 SW12      30.01S
RALEIGH NC     FAIR      30  25  81 SW6       30.15R WCI  24
ATLANTA GA     FAIR      34  27  75 W8        30.24F
NEW ORLEANS LA FAIR      44  36  73 W5        30.34F
OKLAHOMA CITY  FAIR      41  16  36 CALM      30.27R
ALBUQUERQUE NM FAIR      36   4  26 N5        30.46S
SALT LAKE CITY FAIR      27  24  89 CALM      30.60R FOG
LOS ANGELES CA MOCLDY    71  16  12 CALM      30.15R
BOISE ID       CLOUDY    26  20  77 NE3       30.68R
SEATTLE WA     FAIR      40  28  62 N9        30.31S
$$

*** WEATHER ACROSS MANITOBA...SASKATCHEWAN AND ONTARIO ***
                ***ONTARIO***

CITY           SKY/WX    TMP DP  RH WIND       PRES   REMARKS
GERALDTON      CLOUDY    -6  -9  84 SW2       29.89F
THUNDER BAY    PTCLDY    -4  -8  84 W5        30.01S WCI -15
SIOUX LOOKOUT  CLOUDY    -2  -6  84 SE3       29.82F
TORONTO        CLOUDY    27  21  80 W8        29.87R WCI  18
BIG TROUT LK   FLURRIES  -2  -8  78 W6        29.79F WCI -14
PICKLE LAKE    NOT AVBL
DRYDEN         FLURRIES   9   7  92 S6        29.79R WCI  -1
KENORA         FLURRIES  14  10  85 S13       29.74F WCI   0
$$
                *** MANITOBA***

CITY           SKY/WX    TMP DP  RH WIND       PRES   REMARKS
BRANDON        MOCLDY    30  27  86 W9        29.68S WCI  22
DAUPHIN        CLOUDY    36  32  87 NW13      29.69R
ISLAND LAKE    FLURRIES   3  -2  78 SE5       29.78F WCI  -6
PILOT MOUND      N/A     34  30  86 W7          N/A
THE PAS        FLURRIES  18  12  79 N18       29.91R WCI   2
THOMPSON       PTCLDY     1  -4  78 N10       29.90R WCI -14
WINNIPEG       CLOUDY    25  23  93 S12       29.67F WCI  14
LYNN LAKE      CLEAR      1  -2  85 N9        30.02R WCI -14
CHURCHILL      LGT SNOW   5   1  85 N16       29.93R DRFTSNOWWCI -14
GILLAM         FLURRIES   0  -6  78 NW10      29.87R WCI -17
$$
                ***SASKATCHEWAN***

CITY           SKY/WX    TMP DP  RH WIND       PRES   REMARKS
ESTEVAN        MOCLDY    37  32  81 W32G40    29.86S
KINDERSLEY     PTCLDY    36  28  75 NW17G24   30.18R
LLOYDMINSTER   CLOUDY    36  30  80 NW13      30.16R
PRINCE ALBERT  CLOUDY    36  30  80 N17G28    30.02R
REGINA         CLOUDY    37  32  81 NW31G39   29.92R
YORKTON        LGT RAIN  36  34  93 NW20G29   29.78R


USA.gov is the U.S. government's official web portal to all federal, state and local government web resources and services.